SPOT 6

Last updated on Mon Oct 14 2024 00:02:24 GMT+0000 (Coordinated Universal Time)

1 38755U 12047A 24287.47818673 .00001686 00000+0 37216-3 0 9991 2 38755 98.2105 352.8032 0001010 89.3745 270.7570 14.58600523643911
UTC large
Height (km)
Speed (km/s)
/
Latitude / Longitude
Inclination (degrees)
Orbital Period (minutes)
Azimuth
Elevation
Range (km)
Doppler Factor

Next 0 passes for location: London (51.5072 / 0.1276)

Sorry there are no passes over London.